Regional Weather Roundup
Issued by NWS

Home | Current Version | Previous Version | Text Only | Print | Product List | Glossary Off
Versions: 1 2 3 4 5 6 7 8 9 10 11 12 13 14 15 16 17 18 19 20 21 22 23 24 25 26 27 28 29 30 31 32 33 34 35 36 37 38 39 40 41 42 43 44 45 46 47 48 49 50

000
ASUS45 KBOU 081807
RWRCO

WEATHER ROUNDUP FOR COLORADO
NATIONAL WEATHER SERVICE DENVER/BOULDER CO
1100 AM MST MON FEB 08 2016

NOTE: "FAIR" INDICATES FEW OR NO CLOUDS BELOW 12000 FEET WITH NO
SIGNIFICANT WEATHER AND/OR OBSTRUCTIONS TO VISIBILITY.

COZ001>005-013-030-031-081900-
...NORTHWEST COLORADO...

CITY           SKY/WX    TMP DP  RH WIND       PRES   REMARKS
CRAIG          CLOUDY    14   6  70 CALM      30.63S
HAYDEN         CLOUDY    16   9  73 S6        30.60F WCI   7
MEEKER         CLOUDY    21  14  74 CALM      30.61R
MOUNT WERNER   NOT AVBL
STEAMBOAT SPGS CLOUDY    21  14  75 CALM      30.60F
WALDEN         CLOUDY    25  14  63 SW3       30.54S
$$

COZ006>008-011-081900-
...WEST CENTRAL VALLEYS...

CITY           SKY/WX    TMP DP  RH WIND       PRES   REMARKS
GRAND JUNCTION SUNNY     29  20  69 E5        30.62R WCI  24
MONTROSE       SUNNY     34  17  50 CALM      30.62S
EAGLE          SUNNY     25  16  68 CALM      30.64F
RIFLE          SUNNY     25  15  66 CALM      30.63F
DELTA          SUNNY     33  20  58 E5        30.63S WCI  29
NUCLA          SUNNY     32  19  59 CALM      30.60S
$$

COZ017>023-064>068-081900-
...SOUTHWEST COLORADO...

CITY           SKY/WX    TMP DP  RH WIND       PRES   REMARKS
DURANGO        CLOUDY    31  18  58 CALM      30.48F
CORTEZ         CLOUDY    38  21  50 NE3       30.51R
PAGOSA SPRINGS CLOUDY    31  19  60 CALM      30.46F
TELLURIDE      SUNNY     38  15  38 W9G21     30.54S
WOLF CREEK PAS SUNNY     32  10  40 N18G25    30.57S WCI  20
$$

COZ009-010-012-014-032>034-037-058>063-081900-
...CENTRAL COLORADO...

CITY           SKY/WX    TMP DP  RH WIND       PRES   REMARKS
ASPEN          CLOUDY    29  14  53 CALM      30.57F
BUENA VISTA    CLOUDY    39  18  42 NW22G28   30.46F
COPPER MTN     CLOUDY    25  16  68 NW13G24   30.56S WCI  13
BERTHOUD PASS  FAIR      14   5  67 NW30G43   30.50R WCI  -7
COTTONWOOD PAS CLOUDY    41  10  28 W7G22     30.49S
GUNNISON       CLOUDY     7   3  85 S3        30.63F
KREMMLING      SUNNY     28  14  54 E5        30.59S WCI  23
LEADVILLE      CLOUDY    30  14  51 N16       30.52R WCI  19
MONARCH PASS   CLOUDY    21  12  68 W24       30.62S WCI   4
SALIDA         NOT AVBL
SUNLIGHT       CLOUDY    28  21  74 N3          N/A
WILKERSON PASS CLOUDY    30  14  51 N16G32    30.47R WCI  19
$$

COZ069>075-081900-
...SAN LUIS VALLEY/SANGRE DE CRISTO MOUNTAINS...

CITY           SKY/WX    TMP DP  RH WIND       PRES   REMARKS
ALAMOSA        SUNNY     35  14  42 W3        30.48F
LA VETA PASS   SUNNY     32  12  43 SW7       30.46S WCI  26
SAGUACHE       CLOUDY    39  18  41 NW10      30.48S
$$

COZ035-036-038>040-081900-
...NORTHERN COLORADO FRONT RANGE...

CITY           SKY/WX    TMP DP  RH WIND       PRES   REMARKS
DENVER INTL AP CLOUDY    36  20  52 SE3       30.40S
DMNS CITY PARK   N/A     42  17  37 E13       30.39F
AURORA         PTSUNNY   38  20  47 E3        30.40F
FRONT RANGE AP MOSUNNY   34  21  60 S6        30.42R WCI  29
ERIE MUNI ARPT SUNNY     38  23  54 E8        30.40S
BOULDER MUN AP SUNNY     36  23  60 N8        30.40R
CENTENNIAL     CLOUDY    38  19  46 E7        30.39F
BROOMFIELD     PTSUNNY   39  19  45 SE7       30.39F
FORT COLLINS   CLOUDY    27  19  74 NW3       30.43R
LONGMONT       CLOUDY    37  21  53 CALM      30.43R
$$

COZ041-046-047-076>085-087-088-081900-
...PIKES PEAK/PALMER DIVIDE AND SOUTHERN FOOTHILLS...

CITY           SKY/WX    TMP DP  RH WIND       PRES   REMARKS
COLO. SPRINGS  MOSUNNY   28  20  71 S5        30.42R WCI  23
A. F. ACADEMY  PTSUNNY   36  19  50 S10       30.39R
SCHRIEVER AFB  NOT AVBL
ELLICOTT       NOT AVBL
FALCON         SUNNY     38  19  45 N8        30.40S
FORT CARSON    SUNNY     29  21  73 SE5       30.41S WCI  24
LIMON          CLOUDY    33  20  58 W5        30.41R WCI  29
MONUMENT HILL  CLOUDY    32  19  59 CALM      30.41S
TRINIDAD       SUNNY     38  20  48 E5        30.43S
$$

COZ042>045-048>051-090-091-081900-
...NORTHEAST COLORADO...

CITY           SKY/WX    TMP DP  RH WIND       PRES   REMARKS
GREELEY ARPT   CLOUDY    27  19  74 CALM      30.43F
AKRON          CLOUDY    29  20  69 NW14      30.37F WCI  18
BURLINGTON     CLOUDY    33  16  49 NW17G26   30.38R WCI  22
WRAY           MOSUNNY   35  18  48 NW17      30.39F WCI  25
STERLING       CLOUDY    36  23  60 NW10      30.39S
HOLYOKE        MOSUNNY   37  21  52 W15       30.38S
FORT MORGAN    CLOUDY    32  21  65 W12       30.40F WCI  23
$$

COZ086-089-092>099-081900-
...SOUTHEAST COLORADO...

CITY           SKY/WX    TMP DP  RH WIND       PRES   REMARKS
PUEBLO         SUNNY     36  23  59 SW3       30.45F
LA JUNTA       SUNNY     38  24  57 W13       30.45F
LAMAR          SUNNY     39  23  52 W17       30.44R
SPRINGFIELD      N/A     43  17  35 NW18G24   30.42F
$$



USA.gov is the U.S. government's official web portal to all federal, state and local government web resources and services.